铱星星座 22星 (IRIDIUM 22)

导读 | 豆包AI

IRIDIUM 22(铱星22)是美国铱星通信公司于1997年8月21日发射的低轨通信卫星,属于第一代铱星星座组网卫星。它运行在近780公里的近极地轨道,倾角约86.4度,周期约100分钟,为全球提供语音和数据通信服务,支撑航空、航海、应急等领域移动通信,是早期全球卫星通信系统的重要组成节点,现已完成服役任务退役。

Basic Information
目录编号:
24907
目录名称:
IRIDIUM 22
国际标识:
1997-043E
轨道中心:
EARTH
卫星名称:
铱星星座 22星
卫星全名:
铱星星座 22星 (IRIDIUM 22)
卫星状态:
在轨 (已飞行10478 天)
发射日期:
1997-08-21 UTC
国别 :
美国 (US)
星等 :
--
Orbit Information
数据来源 国际轨道数据 AOE轨道数据
星历时间 2026-04-29T10:28:53+0800
14小时前
查看轨道信息
2026-04-26T00:00:00+0800
4天前
查看轨道信息
半长轴 7149.123km 7149.129km
偏心率 0.0002274 0.0002336
轨道倾角 86.397° 86.398°
近地点辐角 85.683° 86.165°
升交点赤经 341.662° 343.103°
平近点角 274.462° 155.923°
近地点 769.36km 769.321km
远地点 772.612km 772.663km
周期 100.263分钟 100.263分钟
每日圈数 14.362288 14.36227
Detailed Information
平衡模式:
三轴稳定
覆盖范围:
全球
运营商:
铱星通信公司
运营商所在国:
美国
使用方式:
暂无
Satellite Introduction
铱星(Iridium)是由共66个运作中的通信卫星组成的卫星通信系统。这个系统原本规划77个通信卫星,所以用原子序数为77的铱元素来命名。铱卫星允许人们使用手持型电子设备进行全球性的语音及数据通讯。该卫星已退役。
2D Orbit Map
3D Orbit Map
Orbit Altitude Analysis Chart
Orbit Inclination Analysis Chart
Orbit Comprehensive Analysis Chart
View Comprehensive Chart